Temp
-11 -11 -11 -11 -11 -11 -11 -12 -12 -12 -12 -12 -13 -14 -15 -16 -16 -16 -16 -16 -17 -17 -18 -18 -18 -19 -20 -20 -20 -19 -20 -20 -20 -20 -20 -20 -20 -20 -19 -19 -19 -17 -16 -16 -16 -16 -16 -15 -14 -13 -14 -13 -12 -12
-12 -11 -11 -11 -11 -11 -11 -11 -12 -12 -13 -13 -14 -14 -16 -16 -16 -16 -16 -17 -17 -18 -18 -18 -18 -19 -19 -19 -19 -19 -19 -19 -20 -19 -19 -19 -19 -19 -19 -19 -20 -18 -18 -19 -18 -17 -17 -16 -16 -15 -14 -14 -13 -13
-11 -11 -11 -11 -11 -11 -11 -12 -12 -12 -13 -14 -15 -15 -16 -16 -16 -16 -16 -17 -17 -17 -18 -18 -18 -18 -18 -18 -19 -19 -19 -19 -19 -19 -19 -19 -19 -19 -19 -19 -18 -19 -18 -17 -18 -17 -16 -16 -15 -15 -15 -15 -14 -14
-11 -10 -10 -10 -12 -12 -12 -12 -12 -12 -13 -14 -15 -15 -16 -16 -16 -16 -17 -17 -17 -17 -18 -18 -18 -18 -18 -18 -18 -19 -19 -19 -19 -19 -19 -19 -19 -19 -19 -19 -19 -19 -18 -19 -17 -16 -16 -15 -15 -14 -14 -14 -14 -14
-10 -10 -10 -11 -12 -12 -12 -12 -12 -13 -14 -15 -15 -15 -15 -16 -16 -16 -17 -17 -17 -17 -18 -18 -18 -18 -18 -18 -18 -18 -19 -19 -19 -19 -19 -19 -19 -19 -19 -19 -19 -20 -19 -19 -19 -17 -16 -15 -15 -15 -14 -14 -14 -14
-10 -11 -11 -11 -11 -12 -12 -12 -13 -14 -15 -16 -15 -15 -16 -16 -16 -16 -17 -17 -17 -17 -18 -18 -18 -18 -18 -18 -18 -18 -18 -18 -18 -19 -20 -20 -19 -19 -19 -19 -20 -20 -20 -20 -19 -18 -16 -15 -15 -15 -15 -15 -14 -14
-10 -10 -11 -11 -11 -12 -12 -13 -13 -14 -16 -15 -15 -15 -15 -15 -16 -16 -16 -17 -17 -17 -18 -18 -18 -18 -18 -18 -18 -18 -18 -18 -19 -20 -20 -20 -19 -19 -19 -19 -19 -19 -19 -19 -19 -19 -18 -17 -15 -15 -15 -15 -15 -14
-10 -11 -11 -11 -12 -12 -13 -13 -14 -16 -15 -15 -15 -15 -15 -16 -16 -16 -16 -17 -17 -18 -18 -18 -18 -18 -18 -18 -18 -18 -19 -19 -19 -20 -20 -20 -20 -19 -19 -20 -20 -20 -19 -19 -19 -19 -18 -18 -16 -15 -15 -15 -15 -14
-11 -11 -12 -12 -13 -13 -14 -15 -16 -15 -15 -15 -15 -15 -16 -16 -16 -16 -16 -17 -17 -17 -17 -18 -18 -18 -18 -18 -18 -18 -19 -19 -20 -20 -20 -20 -20 -20 -19 -19 -19 -20 -19 -19 -19 -19 -19 -19 -17 -16 -15 -16 -14 -14
-11 -11 -12 -12 -14 -14 -15 -17 -16 -16 -16 -16 -15 -16 -16 -16 -16 -16 -17 -17 -17 -17 -17 -18 -18 -18 -18 -18 -18 -18 -19 -19 -19 -20 -20 -20 -20 -20 -20 -20 -19 -20 -20 -20 -20 -20 -19 -19 -17 -17 -15 -15 -15 -15
-12 -12 -12 -14 -15 -16 -17 -17 -16 -16 -16 -16 -16 -16 -16 -16 -16 -16 -17 -17 -17 -18 -18 -18 -18 -18 -18 -18 -18 -19 -19 -19 -19 -19 -20 -20 -20 -20 -20 -19 -19 -20 -20 -20 -20 -20 -20 -19 -18 -17 -15 -16 -15 -15
-13 -13 -14 -15 -16 -16 -16 -16 -16 -16 -16 -16 -16 -16 -16 -16 -16 -16 -17 -17 -17 -17 -17 -17 -18 -18 -18 -18 -18 -19 -19 -19 -19 -20 -20 -20 -20 -21 -20 -19 -19 -19 -19 -20 -19 -19 -18 -18 -18 -16 -16 -16 -16 -16
-15 -15 -16 -16 -16 -16 -16 -16 -16 -16 -16 -16 -16 -16 -16 -17 -17 -17 -17 -17 -17 -17 -18 -18 -18 -18 -18 -18 -18 -18 -18 -19 -19 -19 -20 -20 -20 -19 -20 -19 -20 -20 -20 -20 -19 -19 -18 -18 -18 -17 -16 -16 -16 -16
-16 -16 -16 -16 -16 -16 -16 -16 -16 -17 -17 -16 -16 -17 -17 -17 -17 -17 -17 -17 -17 -17 -18 -18 -18 -18 -18 -18 -18 -18 -19 -19 -19 -19 -19 -19 -20 -20 -19 -20 -20 -20 -20 -19 -19 -19 -18 -18 -17 -16 -17 -16 -15 -16
-16 -16 -16 -16 -16 -16 -16 -16 -17 -17 -17 -17 -17 -17 -17 -17 -17 -17 -17 -17 -17 -18 -18 -18 -18 -18 -18 -19 -19 -19 -19 -19 -19 -19 -19 -19 -19 -20 -19 -19 -20 -20 -20 -20 -20 -19 -19 -18 -18 -17 -17 -17 -17 -16
-16 -16 -16 -16 -16 -16 -17 -17 -17 -17 -17 -17 -17 -17 -17 -17 -17 -17 -17 -18 -17 -18 -18 -18 -18 -19 -19 -19 -19 -19 -19 -19 -19 -19 -19 -20 -19 -19 -20 -20 -20 -19 -19 -19 -20 -20 -20 -20 -19 -18 -18 -18 -17 -17
-16 -16 -16 -17 -17 -17 -17 -17 -17 -17 -17 -17 -17 -17 -17 -17 -17 -17 -17 -17 -18 -18 -18 -19 -19 -19 -19 -19 -19 -19 -20 -20 -20 -20 -20 -20 -20 -20 -20 -20 -20 -20 -20 -21 -20 -20 -20 -20 -20 -20 -19 -18 -18 -18
-16 -17 -17 -17 -17 -17 -17 -17 -17 -17 -18 -17 -17 -17 -17 -17 -17 -17 -18 -18 -18 -19 -19 -19 -19 -19 -19 -19 -19 -20 -20 -20 -20 -20 -20 -20 -20 -20 -20 -20 -20 -21 -20 -20 -20 -21 -20 -20 -20 -19 -19 -18 -18 -17
-17 -17 -17 -17 -17 -18 -18 -18 -18 -18 -18 -18 -17 -17 -17 -17 -18 -18 -19 -18 -18 -19 -19 -19 -19 -19 -20 -20 -20 -20 -20 -20 -21 -21 -21 -21 -21 -21 -21 -21 -21 -21 -21 -21 -21 -21 -21 -20 -20 -19 -20 -19 -19 -18
-17 -17 -18 -17 -18 -17 -17 -17 -18 -18 -18 -18 -18 -18 -18 -18 -18 -19 -20 -20 -19 -19 -20 -20 -20 -21 -21 -21 -21 -21 -21 -21 -21 -21 -21 -21 -22 -22 -22 -21 -22 -21 -21 -21 -21 -21 -21 -20 -21 -21 -21 -21 -21 -21
-18 -18 -18 -18 -18 -18 -18 -18 -19 -19 -19 -19 -20 -20 -20 -20 -20 -20 -20 -20 -20 -20 -20 -20 -21 -22 -22 -22 -22 -21 -22 -22 -22 -22 -22 -22 -22 -23 -23 -23 -23 -23 -22 -22 -22 -22 -22 -21 -21 -21 -21 -21 -21 -21
-18 -18 -18 -18 -18 -19 -19 -19 -19 -20 -20 -20 -20 -20 -20 -20 -20 -20 -20 -21 -21 -21 -21 -21 -21 -22 -22 -22 -22 -22 -22 -22 -23 -23 -23 -23 -23 -23 -23 -23 -24 -24 -23 -23 -23 -23 -23 -22 -23 -22 -22 -21 -21 -21
-18 -18 -19 -19 -19 -19 -19 -19 -20 -20 -20 -20 -20 -20 -21 -21 -21 -21 -21 -21 -21 -21 -21 -21 -22 -22 -22 -22 -22 -23 -23 -23 -23 -23 -24 -24 -23 -24 -24 -24 -24 -25 -25 -25 -25 -24 -24 -24 -23 -23 -22 -22 -22 -22
-18 -18 -19 -19 -19 -19 -19 -19 -19 -20 -20 -20 -20 -21 -21 -21 -21 -21 -22 -22 -22 -22 -22 -22 -22 -23 -23 -23 -23 -23 -23 -23 -24 -24 -24 -24 -24 -25 -25 -25 -25 -26 -26 -26 -26 -25 -25 -25 -25 -24 -24 -23 -23 -22
-18 -18 -18 -18 -18 -19 -19 -19 -19 -19 -20 -20 -20 -21 -21 -21 -21 -21 -21 -22 -22 -22 -22 -22 -22 -23 -23 -23 -23 -23 -23 -24 -24 -24 -24 -25 -25 -25 -25 -25 -25 -26 -26 -26 -26 -26 -26 -26 -26 -26 -25 -25 -25 -24
-17 -18 -18 -18 -18 -18 -19 -19 -19 -19 -20 -20 -21 -21 -21 -21 -22 -22 -22 -22 -22 -22 -22 -22 -23 -23 -23 -23 -23 -23 -23 -23 -24 -24 -24 -24 -24 -25 -25 -25 -25 -26 -26 -26 -26 -26 -27 -27 -27 -27 -26 -26 -26 -25
-17 -17 -17 -18 -18 -18 -19 -19 -19 -19 -20 -20 -20 -20 -21 -21 -22 -22 -22 -22 -22 -22 -22 -22 -23 -23 -23 -23 -23 -23 -23 -24 -24 -24 -24 -24 -24 -25 -25 -25 -25 -25 -26 -26 -26 -26 -26 -26 -27 -27 -27 -27 -26 -26
-17 -17 -18 -18 -18 -18 -18 -19 -19 -19 -19 -20 -20 -20 -20 -21 -21 -21 -22 -22 -22 -22 -22 -23 -23 -23 -23 -23 -23 -23 -23 -24 -24 -24 -24 -24 -24 -24 -24 -25 -25 -25 -25 -25 -25 -26 -26 -26 -26 -26 -26 -26 -26 -26
-17 -17 -18 -18 -18 -18 -18 -19 -19 -19 -19 -19 -20 -20 -20 -20 -20 -21 -21 -21 -22 -22 -22 -22 -23 -23 -23 -23 -23 -23 -23 -23 -23 -24 -24 -24 -24 -24 -24 -24 -25 -25 -25 -25 -25 -25 -25 -25 -25 -25 -25 -25 -26 -26
-17 -17 -18 -18 -18 -18 -19 -19 -19 -19 -19 -19 -19 -20 -20 -20 -21 -21 -21 -21 -21 -22 -22 -22 -22 -23 -23 -23 -23 -23 -23 -23 -23 -23 -24 -24 -24 -24 -24 -24 -24 -24 -24 -24 -25 -25 -25 -25 -25 -25 -25 -25 -25 -25
-17 -18 -18 -18 -18 -18 -19 -19 -19 -19 -19 -19 -19 -20 -20 -20 -20 -21 -21 -21 -21 -21 -21 -22 -22 -22 -22 -22 -23 -23 -23 -23 -23 -23 -23 -23 -24 -24 -24 -24 -24 -24 -24 -24 -24 -24 -24 -24 -24 -24 -24 -24 -24 -24
-17 -18 -18 -18 -18 -19 -19 -19 -19 -19 -19 -19 -19 -19 -20 -20 -20 -20 -21 -21 -21 -21 -21 -21 -22 -22 -22 -22 -22 -22 -23 -23 -23 -23 -23 -23 -23 -23 -23 -23 -23 -23 -23 -24 -24 -24 -24 -24 -24 -24 -24 -24 -24 -23
-17 -18 -18 -18 -18 -18 -19 -19 -19 -19 -19 -19 -19 -19 -19 -20 -20 -20 -20 -21 -21 -21 -21 -21 -21 -21 -22 -22 -22 -22 -22 -22 -22 -23 -23 -23 -23 -23 -23 -23 -23 -23 -23 -23 -23 -23 -23 -23 -23 -23 -23 -23 -23 -23
Height
5781 5774 5767 5763 5758 5753 5748 5742 5738 5734 5731 5726 5721 5718 5715 5714 5716 5715 5714 5712 5711 5708 5708 5706 5704 5700 5696 5695 5696 5696 5695 5691 5688 5686 5686 5686 5682 5685 5690 5695 5699 5706 5714 5723 5730 5737 5743 5742 5751 5755 5759 5766 5772 5780
5771 5765 5759 5753 5748 5743 5739 5734 5731 5728 5723 5719 5716 5712 5711 5711 5712 5711 5709 5707 5706 5704 5704 5703 5699 5695 5692 5693 5693 5693 5692 5689 5687 5685 5685 5683 5684 5685 5687 5691 5693 5703 5707 5713 5724 5728 5728 5736 5738 5745 5749 5754 5766 5775
5762 5755 5749 5744 5737 5732 5728 5724 5722 5720 5715 5713 5710 5708 5709 5709 5708 5706 5704 5703 5702 5701 5701 5699 5696 5693 5691 5691 5691 5691 5689 5687 5685 5683 5682 5680 5680 5681 5682 5684 5686 5690 5697 5703 5709 5712 5723 5730 5733 5737 5744 5750 5757 5766
5753 5746 5738 5731 5723 5719 5718 5716 5715 5711 5708 5705 5705 5706 5705 5705 5705 5702 5701 5699 5699 5698 5698 5697 5694 5692 5691 5690 5690 5689 5687 5684 5683 5681 5679 5675 5674 5674 5676 5677 5678 5683 5691 5693 5699 5703 5712 5720 5729 5734 5740 5746 5754 5761
5742 5735 5727 5720 5714 5712 5711 5709 5707 5705 5702 5702 5703 5703 5703 5701 5701 5699 5698 5696 5696 5697 5695 5694 5693 5690 5689 5688 5687 5686 5685 5682 5680 5677 5674 5672 5671 5671 5670 5671 5672 5676 5681 5687 5690 5696 5703 5711 5719 5727 5734 5741 5748 5754
5731 5724 5718 5713 5708 5706 5705 5702 5700 5698 5697 5699 5701 5700 5700 5698 5696 5696 5695 5695 5694 5693 5693 5693 5691 5690 5687 5685 5684 5683 5681 5680 5677 5673 5672 5669 5668 5668 5667 5666 5667 5669 5673 5678 5682 5687 5696 5704 5710 5720 5728 5735 5742 5749
5722 5715 5710 5706 5703 5700 5697 5696 5695 5693 5694 5697 5698 5698 5697 5696 5693 5694 5694 5693 5691 5691 5692 5691 5690 5688 5686 5683 5680 5679 5678 5676 5674 5671 5668 5667 5666 5665 5665 5663 5664 5665 5667 5671 5675 5678 5685 5694 5702 5712 5720 5728 5734 5740
5713 5708 5704 5700 5697 5695 5692 5691 5689 5690 5693 5694 5694 5695 5696 5693 5692 5692 5691 5690 5689 5689 5689 5688 5688 5686 5685 5683 5680 5678 5676 5675 5673 5671 5668 5665 5664 5662 5660 5659 5658 5661 5662 5663 5666 5670 5676 5684 5694 5704 5713 5721 5727 5734
5707 5702 5699 5696 5694 5690 5689 5688 5687 5689 5691 5691 5692 5693 5693 5692 5690 5690 5689 5688 5689 5690 5687 5687 5686 5684 5684 5682 5680 5678 5676 5675 5672 5670 5667 5664 5661 5659 5658 5656 5656 5656 5656 5658 5660 5664 5669 5675 5684 5696 5705 5712 5720 5728
5702 5698 5695 5691 5689 5688 5687 5687 5688 5689 5689 5690 5690 5691 5691 5690 5689 5688 5687 5687 5686 5686 5685 5685 5683 5682 5682 5680 5679 5677 5676 5674 5672 5670 5666 5662 5660 5658 5657 5654 5653 5651 5648 5651 5653 5655 5660 5667 5677 5688 5701 5705 5713 5720
5697 5693 5690 5686 5685 5686 5687 5688 5689 5688 5689 5689 5689 5689 5689 5688 5687 5686 5685 5685 5685 5684 5682 5682 5681 5680 5680 5680 5678 5677 5675 5673 5671 5669 5667 5663 5658 5655 5654 5652 5651 5649 5648 5648 5650 5652 5657 5662 5672 5683 5693 5699 5707 5713
5692 5689 5686 5685 5685 5687 5688 5689 5688 5687 5687 5687 5688 5687 5686 5685 5685 5685 5683 5683 5682 5681 5680 5679 5679 5679 5678 5677 5677 5676 5674 5672 5670 5668 5665 5662 5657 5653 5650 5649 5649 5647 5647 5648 5650 5653 5656 5662 5668 5676 5685 5694 5700 5708
5689 5688 5687 5688 5687 5688 5689 5689 5688 5687 5686 5685 5685 5684 5684 5683 5682 5681 5681 5679 5678 5678 5677 5676 5676 5676 5675 5675 5674 5674 5673 5671 5669 5667 5664 5661 5656 5652 5650 5647 5646 5647 5647 5648 5649 5651 5656 5663 5668 5675 5682 5688 5695 5704
5688 5689 5689 5688 5688 5689 5689 5688 5687 5686 5685 5684 5684 5683 5681 5680 5679 5678 5677 5676 5676 5674 5673 5672 5672 5671 5671 5671 5671 5671 5670 5669 5667 5665 5662 5660 5657 5653 5649 5646 5644 5646 5648 5649 5651 5652 5655 5661 5666 5669 5677 5683 5687 5692
5689 5690 5689 5688 5688 5688 5688 5687 5685 5684 5683 5681 5681 5679 5677 5676 5675 5675 5673 5672 5671 5670 5669 5668 5668 5668 5667 5667 5667 5666 5665 5665 5664 5661 5660 5658 5657 5654 5651 5647 5646 5645 5646 5647 5648 5650 5653 5658 5664 5667 5671 5673 5679 5678
5689 5689 5688 5687 5687 5686 5685 5684 5683 5681 5680 5678 5677 5675 5673 5673 5670 5670 5669 5668 5667 5664 5664 5663 5663 5662 5662 5662 5662 5660 5660 5660 5660 5658 5657 5655 5654 5654 5654 5652 5649 5646 5645 5647 5647 5649 5652 5653 5656 5660 5663 5668 5671 5674
5688 5688 5687 5685 5684 5683 5682 5680 5679 5677 5676 5674 5673 5670 5669 5669 5666 5665 5664 5662 5660 5660 5658 5657 5657 5657 5657 5656 5655 5654 5654 5655 5654 5655 5653 5654 5653 5651 5651 5650 5650 5650 5648 5647 5647 5648 5647 5650 5653 5655 5656 5661 5667 5671
5687 5686 5684 5682 5681 5679 5677 5675 5674 5673 5670 5667 5666 5663 5662 5661 5657 5658 5658 5656 5655 5653 5652 5652 5652 5652 5653 5650 5650 5649 5648 5647 5648 5648 5647 5647 5647 5648 5647 5646 5647 5647 5645 5644 5645 5646 5645 5646 5648 5651 5653 5656 5660 5664
5685 5683 5682 5679 5676 5673 5672 5670 5668 5666 5663 5662 5661 5658 5656 5654 5652 5652 5652 5650 5650 5650 5650 5649 5648 5647 5646 5645 5643 5641 5641 5641 5641 5641 5641 5640 5641 5641 5641 5641 5642 5641 5642 5642 5641 5640 5641 5642 5642 5644 5646 5648 5651 5654
5682 5681 5679 5675 5673 5670 5668 5665 5662 5660 5658 5657 5657 5655 5653 5652 5650 5647 5646 5645 5646 5646 5645 5643 5642 5640 5639 5639 5638 5637 5637 5636 5635 5634 5634 5633 5634 5634 5634 5634 5633 5633 5633 5635 5637 5637 5637 5637 5639 5639 5640 5642 5645 5647
5681 5679 5676 5674 5671 5668 5666 5663 5661 5659 5656 5656 5655 5653 5652 5650 5649 5647 5645 5645 5644 5643 5642 5640 5638 5637 5638 5637 5635 5634 5633 5631 5630 5629 5629 5628 5627 5627 5626 5626 5625 5625 5624 5624 5625 5627 5627 5630 5633 5632 5633 5634 5635 5638
5680 5678 5675 5672 5670 5668 5666 5664 5662 5660 5659 5657 5656 5653 5651 5649 5647 5646 5645 5643 5642 5641 5640 5639 5637 5636 5635 5634 5633 5632 5630 5629 5627 5626 5625 5624 5623 5622 5620 5619 5616 5614 5614 5613 5613 5614 5616 5619 5621 5621 5624 5627 5628 5630
5680 5678 5676 5674 5672 5670 5668 5665 5663 5661 5660 5657 5654 5651 5648 5646 5644 5643 5642 5641 5640 5639 5638 5637 5635 5634 5633 5632 5631 5630 5629 5627 5626 5624 5623 5621 5619 5618 5615 5612 5609 5606 5604 5603 5603 5603 5603 5605 5608 5610 5611 5613 5617 5620
5681 5680 5678 5676 5675 5672 5670 5668 5666 5663 5660 5657 5654 5651 5648 5646 5644 5642 5641 5640 5639 5638 5637 5636 5635 5634 5633 5631 5630 5629 5628 5626 5624 5622 5620 5618 5616 5613 5611 5609 5605 5601 5598 5597 5596 5595 5595 5595 5596 5598 5600 5603 5606 5607
5685 5684 5681 5679 5678 5676 5674 5671 5669 5666 5663 5660 5656 5653 5650 5648 5645 5643 5642 5642 5640 5639 5638 5637 5636 5634 5633 5631 5630 5629 5628 5626 5623 5621 5619 5616 5613 5611 5609 5607 5604 5601 5597 5594 5592 5590 5589 5589 5588 5588 5589 5591 5592 5595
5687 5686 5685 5683 5682 5680 5677 5675 5672 5669 5666 5662 5659 5655 5652 5649 5648 5646 5645 5644 5643 5641 5639 5639 5637 5636 5634 5632 5631 5630 5628 5626 5624 5621 5618 5616 5613 5611 5608 5606 5603 5600 5597 5594 5591 5589 5587 5585 5584 5583 5583 5583 5584 5586
5690 5689 5687 5686 5685 5683 5681 5678 5676 5673 5670 5666 5662 5658 5656 5653 5651 5649 5647 5645 5644 5642 5641 5640 5639 5637 5636 5634 5633 5631 5629 5627 5625 5623 5620 5617 5614 5612 5609 5606 5603 5600 5597 5595 5592 5590 5588 5586 5584 5582 5581 5581 5580 5580
5693 5692 5690 5689 5687 5686 5684 5682 5679 5676 5673 5670 5666 5662 5660 5657 5655 5652 5650 5648 5646 5644 5643 5642 5640 5639 5637 5635 5633 5632 5630 5628 5626 5624 5622 5620 5617 5614 5612 5609 5606 5604 5601 5598 5596 5594 5592 5590 5588 5587 5585 5584 5583 5582
5695 5694 5694 5692 5690 5689 5687 5685 5682 5679 5676 5673 5670 5667 5664 5660 5658 5655 5652 5650 5647 5646 5644 5643 5642 5640 5639 5637 5635 5633 5632 5630 5629 5627 5625 5622 5620 5618 5615 5613 5610 5608 5606 5603 5601 5598 5596 5595 5593 5591 5590 5589 5587 5587
5698 5697 5696 5694 5693 5692 5690 5688 5685 5682 5679 5677 5673 5670 5667 5664 5660 5657 5654 5652 5650 5648 5646 5644 5643 5641 5640 5639 5637 5636 5634 5633 5631 5630 5628 5626 5624 5622 5620 5617 5615 5613 5610 5608 5606 5604 5601 5599 5599 5597 5596 5595 5593 5591
5699 5699 5698 5697 5696 5694 5692 5690 5688 5685 5683 5680 5677 5674 5671 5667 5664 5661 5657 5654 5651 5649 5647 5646 5644 5643 5642 5641 5640 5638 5636 5635 5634 5633 5631 5629 5628 5626 5624 5622 5620 5618 5616 5614 5612 5610 5608 5607 5605 5603 5601 5600 5598 5597
5701 5700 5700 5699 5698 5696 5694 5692 5690 5688 5685 5682 5680 5677 5674 5670 5667 5664 5661 5658 5654 5651 5649 5647 5646 5644 5643 5642 5641 5640 5639 5638 5637 5635 5634 5633 5632 5630 5628 5627 5625 5623 5621 5619 5618 5616 5614 5612 5611 5609 5607 5606 5604 5603
5703 5702 5701 5700 5699 5697 5696 5694 5692 5689 5687 5684 5682 5679 5676 5673 5670 5667 5664 5661 5658 5654 5651 5649 5648 5647 5645 5644 5643 5642 5642 5641 5640 5638 5637 5635 5634 5633 5632 5631 5629 5627 5626 5624 5623 5621 5619 5618 5616 5615 5613 5611 5610 5608
Wind_Speed
47 47 42 41 41 45 46 46 39 34 31 27 27 19 16 8 8 11 13 15 15 14 13 14 18 21 18 10 8 7 10 13 15 8 7 2 8 7 17 15 18 35 46 43 44 48 36 36 42 47 48 47 42 54
44 41 43 46 45 46 49 48 36 34 30 26 26 18 6 8 9 12 14 15 13 12 12 13 17 19 9 6 6 6 10 15 18 9 7 6 3 12 22 33 29 27 32 28 29 43 53 43 37 32 43 51 54 47
38 43 48 50 47 47 44 40 32 35 27 22 16 7 5 8 10 13 14 14 12 10 10 11 16 15 4 4 4 10 13 17 14 15 12 9 10 8 4 22 25 38 32 43 41 46 56 55 51 47 33 41 26 45
46 50 51 51 45 39 31 27 33 31 27 18 6 5 6 9 13 13 13 12 9 9 8 10 13 8 5 5 7 12 14 14 14 14 14 14 10 10 11 9 26 29 36 42 51 53 54 57 58 52 51 37 30 33
48 47 46 44 33 32 23 29 31 29 22 5 2 7 8 10 12 11 11 8 7 8 9 8 10 10 8 9 11 11 12 16 19 20 15 12 7 8 6 9 14 28 33 34 46 49 47 47 55 58 53 47 40 31
42 41 42 39 29 23 27 25 28 23 10 3 6 7 10 8 8 7 7 6 7 8 10 7 8 10 9 11 14 15 18 15 18 15 10 8 5 3 9 10 10 24 31 31 31 45 48 50 47 52 52 47 38 32
42 38 36 29 29 29 25 21 22 14 7 4 5 6 7 3 0 2 4 5 5 7 8 6 7 10 10 14 9 10 13 12 13 17 15 11 6 8 3 6 13 16 22 30 34 35 46 46 50 50 48 43 41 36
35 31 30 26 25 23 25 23 15 10 5 4 4 3 4 0 2 4 5 3 3 5 6 6 7 8 9 11 9 9 9 12 11 15 20 12 8 8 9 6 8 23 17 20 28 36 42 42 51 49 50 44 41 38
28 25 24 23 22 21 21 17 11 6 4 6 4 6 5 2 3 3 2 3 0 3 5 6 8 7 6 6 8 9 11 11 14 16 21 15 7 6 7 8 5 12 24 22 29 33 33 38 44 49 46 46 43 38
23 21 20 19 15 18 16 12 5 3 5 5 6 7 7 5 4 3 5 5 1 3 5 7 7 7 6 5 4 9 9 10 13 15 18 15 13 8 6 7 7 7 10 19 17 29 34 38 43 51 45 49 44 43
21 20 19 13 10 9 14 7 4 3 5 6 6 7 7 7 5 4 5 9 9 5 5 5 6 6 5 6 7 6 6 9 12 15 14 11 14 15 9 6 5 4 4 4 18 15 28 38 48 50 43 50 49 45
20 18 8 1 9 7 4 2 2 2 4 6 6 7 7 7 7 7 6 6 9 10 9 9 6 6 8 9 8 7 6 9 12 16 12 13 16 17 16 4 3 2 2 14 18 11 25 38 54 37 41 40 44 46
11 2 6 4 3 3 0 1 2 3 3 4 6 7 7 8 10 10 9 8 8 10 10 10 9 12 13 11 9 8 8 10 12 14 13 13 12 13 14 10 3 2 5 3 5 5 20 40 44 42 44 42 41 43
2 4 1 1 1 3 3 4 5 6 7 8 10 9 8 8 8 8 10 11 11 12 12 14 13 13 12 13 13 12 12 12 13 16 14 12 11 13 13 15 9 1 4 7 9 8 12 12 29 47 53 37 44 46
4 1 2 4 5 6 8 9 9 10 11 12 12 11 11 11 12 12 14 15 16 17 16 18 18 16 15 14 15 16 16 15 14 14 13 13 11 11 14 14 14 9 2 4 8 11 13 16 17 22 25 30 27 30
1 3 5 7 8 10 12 13 13 12 13 14 15 14 13 14 17 16 14 15 18 21 22 22 20 16 15 16 17 20 20 17 16 16 13 14 15 13 11 11 11 12 12 5 9 14 14 14 14 21 23 22 29 30
5 7 9 10 12 14 15 16 15 15 16 16 16 17 18 15 28 20 10 12 12 15 16 17 17 16 17 16 16 19 20 18 18 16 19 18 18 16 14 14 12 11 9 5 9 15 17 18 19 20 20 25 29 30
8 10 12 13 14 16 16 17 17 18 19 21 23 22 22 24 28 28 18 17 16 13 13 14 13 13 13 13 19 20 24 21 19 20 21 22 21 20 21 20 14 14 16 17 10 10 16 20 22 23 25 28 32 34
9 9 11 15 16 16 18 19 20 20 21 24 22 23 14 20 24 25 18 12 12 16 17 19 18 19 21 22 25 26 28 27 25 25 25 25 22 22 23 25 22 21 20 19 19 19 17 15 17 22 26 29 30 32
10 10 15 16 15 12 11 16 13 9 12 10 10 6 5 14 19 19 12 8 9 11 13 15 13 10 9 13 16 21 23 25 24 24 23 20 19 22 24 26 27 26 25 24 23 22 23 23 21 21 20 23 26 23
11 13 13 16 15 13 12 7 9 11 10 7 6 5 5 8 11 11 12 12 11 9 8 9 10 7 9 14 20 23 17 14 12 11 13 14 15 17 19 21 23 26 28 28 29 29 30 27 24 26 26 25 24 23
10 12 13 12 13 13 11 9 8 7 6 5 7 9 10 10 9 7 7 6 6 6 9 9 6 7 8 10 11 11 7 4 4 5 6 6 8 10 12 15 19 24 27 30 32 34 34 34 30 33 33 31 31 30
10 10 11 12 13 12 11 11 13 11 9 11 12 12 11 10 7 6 6 6 6 7 7 6 6 7 6 6 5 5 6 8 8 8 7 7 8 12 15 16 18 18 19 21 23 26 29 29 31 36 39 38 37 37
12 13 12 11 11 13 15 15 16 17 17 16 16 14 13 11 9 7 6 5 4 3 4 5 6 7 8 8 7 7 9 10 10 10 10 12 13 13 12 14 16 13 13 13 14 15 18 21 23 26 30 34 38 40
13 12 14 16 16 18 18 17 17 16 16 15 16 16 14 11 10 10 8 7 6 6 7 7 7 7 6 6 6 7 8 9 9 9 11 12 12 10 10 11 12 13 12 10 9 9 11 12 14 17 21 23 26 30
17 16 17 16 16 15 14 15 15 17 19 19 18 16 15 14 11 9 8 7 7 8 9 8 8 9 9 7 7 8 10 10 11 11 10 10 10 9 9 9 10 11 11 11 12 11 9 7 6 6 8 11 15 18
12 13 13 13 13 14 15 16 17 18 18 19 19 19 17 14 12 10 8 7 6 7 7 7 9 9 8 9 9 9 10 11 12 11 11 12 12 11 10 11 11 11 11 10 10 11 12 12 11 10 7 5 2 3
9 10 11 13 14 15 15 17 17 18 19 19 20 18 17 17 14 12 10 9 7 5 6 7 7 8 10 10 10 12 13 14 15 14 13 13 13 14 15 14 14 15 15 15 16 16 16 16 15 15 15 15 14 13
9 10 11 12 12 13 14 15 16 17 18 19 20 20 19 17 16 15 13 11 10 9 7 6 8 9 10 11 11 12 13 14 16 16 14 14 13 14 15 16 17 16 16 17 18 18 17 17 17 18 18 18 18 16
8 9 9 10 11 13 15 16 17 18 18 18 18 19 20 21 20 18 15 13 12 10 9 7 6 7 8 10 11 11 12 13 13 14 15 16 16 16 16 17 18 19 20 20 21 21 22 21 19 19 20 19 21 21
8 8 9 9 10 12 13 14 16 17 19 20 21 21 20 20 19 22 21 18 14 11 10 9 7 6 6 7 9 11 11 12 12 13 14 15 15 15 16 16 16 18 19 19 19 20 20 20 22 22 22 21 21 20
6 6 7 7 9 10 12 13 15 16 17 17 19 21 22 20 20 20 20 20 19 16 11 10 10 8 6 6 7 8 10 12 12 12 11 12 13 15 15 16 16 18 18 18 18 19 19 19 20 20 20 20 20 20
5 6 7 8 9 11 12 13 13 14 14 15 17 18 20 21 20 19 20 20 20 19 16 12 10 11 9 7 7 7 7 9 11 12 12 12 12 13 13 14 14 15 16 17 17 18 18 18 18 18 18 18 17 18
Wind_Direction
309 316 318 319 322 321 319 318 319 311 314 306 306 304 309 255 254 291 298 298 295 292 290 296 307 309 297 278 274 286 325 353 359 1 14 357 258 217 184 176 219 217 217 213 210 206 204 221 213 210 201 208 207 213
310 316 319 318 316 309 310 312 312 306 308 307 296 303 262 234 280 295 296 300 294 292 294 306 312 318 298 228 247 286 330 348 345 357 347 9 121 210 215 211 210 215 207 209 216 216 208 210 225 224 197 209 212 212
311 315 314 315 307 306 305 305 301 299 298 294 299 286 234 278 290 296 303 304 293 287 296 314 321 331 227 214 265 283 307 328 356 6 350 326 293 270 226 221 222 215 202 209 203 215 213 209 215 226 218 223 208 214
313 314 314 313 310 301 300 299 293 289 286 284 283 240 269 291 299 308 309 300 288 284 307 317 332 329 251 269 293 306 305 314 334 342 338 318 277 262 249 254 220 217 211 209 209 215 215 214 212 215 223 228 228 219
312 314 317 317 309 300 295 292 291 298 274 282 268 273 294 307 309 310 305 295 282 285 321 329 339 336 279 281 290 299 304 323 327 334 337 325 268 290 271 269 245 214 208 211 213 221 221 218 216 218 219 227 229 225
313 315 315 313 306 289 285 288 295 272 248 109 266 294 308 313 315 312 311 301 280 288 318 327 331 348 338 296 292 302 312 325 328 330 347 327 278 269 301 254 229 220 218 216 214 219 218 221 218 219 222 224 224 221
313 313 312 307 305 281 280 294 286 264 127 230 282 296 305 285 318 315 296 287 286 274 311 327 338 340 344 355 323 307 322 341 6 356 342 339 265 234 271 224 230 218 222 225 222 217 213 212 221 218 218 217 219 215
316 311 310 305 296 285 290 294 264 146 199 248 236 267 253 269 337 302 300 284 259 272 291 309 337 331 352 11 22 18 3 2 1 341 346 331 336 280 287 310 231 216 215 218 217 218 210 210 215 214 215 216 216 213
319 316 308 307 312 296 291 268 160 164 222 206 225 220 232 284 320 288 207 189 35 331 299 298 324 309 323 349 8 6 12 351 346 342 340 338 303 309 293 310 256 241 220 227 219 217 218 214 205 206 206 212 213 213
319 320 318 314 297 274 257 139 167 213 208 219 228 233 250 274 301 258 206 209 192 315 309 308 305 280 284 338 350 11 352 334 341 337 340 339 336 318 315 300 281 289 248 221 221 210 215 210 197 194 195 210 212 213
317 320 323 322 284 181 110 122 220 227 241 225 241 265 263 265 270 290 257 243 246 301 273 282 304 268 266 280 298 317 335 333 329 323 332 337 324 335 334 283 287 291 192 219 196 177 201 192 185 182 190 209 210 212
322 330 334 185 126 109 149 163 184 287 259 244 266 279 277 262 267 270 271 258 264 285 285 264 253 266 276 282 283 300 304 313 322 323 332 327 337 337 359 343 269 246 96 187 183 234 191 193 178 188 191 205 207 213
327 20 113 111 107 146 119 298 290 295 304 287 287 285 276 270 267 265 270 274 274 278 274 275 279 275 275 276 274 280 284 293 309 316 314 329 330 334 347 3 313 185 187 181 123 157 158 185 194 198 199 202 195 207
189 160 166 50 309 233 267 291 295 293 286 284 287 285 287 296 281 279 269 268 267 268 269 272 277 275 268 258 258 264 267 271 291 306 308 320 331 323 336 357 15 159 167 193 171 160 191 196 190 198 204 210 205 212
144 206 311 315 293 271 269 272 280 291 299 297 292 290 288 280 275 279 273 273 271 265 260 261 274 283 271 251 252 255 264 263 284 293 296 301 314 322 327 342 355 9 214 257 242 201 195 212 219 200 215 221 207 186
323 310 304 301 293 284 277 275 279 289 296 296 295 292 280 286 284 287 280 271 260 258 259 268 274 269 258 256 258 256 258 252 271 284 271 280 292 300 309 313 322 337 335 264 246 228 209 211 212 220 224 235 236 238
317 308 304 299 293 288 282 280 282 288 294 296 289 288 287 251 248 272 273 294 267 276 269 269 267 263 263 265 237 236 248 259 262 262 264 271 280 281 279 278 285 293 288 298 235 232 239 225 215 220 218 226 231 229
312 308 307 305 301 295 289 286 286 291 295 294 288 275 273 267 250 287 274 293 277 265 271 266 260 256 230 226 227 244 262 269 271 265 262 268 270 271 272 273 275 274 272 274 251 221 229 236 233 230 226 224 231 235
314 313 322 325 314 298 291 289 285 290 288 289 286 298 307 270 256 257 275 296 291 261 239 238 240 241 250 260 265 266 273 277 273 270 268 264 263 265 268 271 274 271 266 261 262 262 255 236 235 239 236 235 232 235
318 312 320 333 334 330 331 329 307 296 287 313 322 307 270 263 251 292 327 326 302 269 275 288 284 287 297 307 301 281 270 269 269 276 279 274 269 267 265 266 267 267 264 258 256 253 249 253 252 247 235 229 228 226
335 336 337 337 338 335 335 350 299 297 317 3 13 28 355 337 340 335 321 304 298 310 318 327 325 315 297 282 261 263 287 285 274 276 280 283 283 282 279 274 269 265 264 262 259 254 254 250 249 252 250 247 248 243
351 349 352 2 15 17 17 23 29 41 56 13 342 333 329 328 323 308 310 303 304 307 316 312 316 318 303 293 289 291 295 299 304 298 299 307 316 315 312 300 285 275 269 265 263 262 256 254 255 252 248 247 246 244
4 22 23 23 21 19 27 28 28 21 16 11 7 3 1 357 344 322 315 319 306 306 323 338 340 334 333 330 324 323 326 326 323 317 309 314 318 326 329 330 317 296 280 272 266 263 261 258 254 253 253 254 250 248
34 35 37 31 36 40 35 34 32 28 24 21 17 10 8 8 7 7 1 353 348 353 352 359 351 338 330 330 331 334 333 328 322 323 321 319 323 325 332 344 341 327 305 293 284 275 268 265 262 256 251 250 251 253
63 62 63 61 63 64 57 50 45 35 26 21 17 16 20 19 32 40 42 43 45 47 44 33 20 12 12 22 26 15 5 359 353 342 337 331 331 333 329 339 353 3 2 351 328 303 287 278 269 263 258 255 251 248
81 77 76 73 69 63 48 39 34 30 25 22 22 25 30 35 40 44 46 44 44 46 46 40 36 39 42 47 43 36 33 29 26 24 22 18 16 10 358 349 344 349 353 2 11 12 6 350 321 291 268 257 253 250
84 76 69 59 48 43 40 39 37 35 31 31 34 36 35 37 39 41 41 43 44 48 47 43 44 42 49 52 48 40 32 29 26 24 26 26 26 27 26 23 22 26 27 24 24 30 36 40 43 45 45 46 15 266
77 67 60 59 56 52 47 44 40 38 38 37 39 39 38 38 37 35 35 37 41 49 52 48 46 46 48 52 49 44 41 39 36 35 36 40 45 50 50 47 45 45 46 48 50 52 53 54 55 56 58 61 64 67
75 72 69 66 59 52 48 44 41 39 39 38 39 38 36 35 34 35 36 34 32 34 39 47 48 48 48 50 53 51 48 47 45 40 38 39 40 42 43 46 49 52 55 56 57 58 58 59 59 59 62 64 64 67
84 72 68 64 57 54 53 48 43 39 36 34 34 34 35 35 33 30 27 27 32 32 29 32 43 48 47 47 49 50 48 48 45 43 44 45 46 50 54 56 57 58 60 60 59 58 56 55 59 61 63 65 66 64
88 82 75 66 59 52 47 42 38 35 32 30 29 28 27 27 29 29 29 28 25 26 30 31 33 40 47 49 47 45 44 43 42 42 44 47 45 48 53 55 60 63 62 61 61 62 62 60 60 60 60 59 60 60
77 72 63 50 40 34 30 28 26 25 25 24 24 24 24 23 23 23 23 25 26 27 33 38 37 41 49 52 52 48 47 46 47 48 47 46 47 50 54 59 60 62 61 57 56 58 58 57 57 55 54 54 54 54
34 23 14 6 2 360 360 1 4 6 10 14 17 19 20 19 20 20 22 22 23 25 31 40 44 43 47 58 62 60 56 52 51 51 53 55 55 56 58 58 57 57 56 55 54 55 54 53 52 51 51 50 48 47